| time (UTC) | temp F | wind direction | speed MPH | gust MPH | rain 1hr in | rain 24hr in | rain mn in | humidity % | barometer mb |
| 20260831080118 | 81 | 49 | 4.0 | 12.0 | 0.00 | 0.00 | 0.00 | 65 | 1010.7 |
| 20260831075218 | 81 | 24 | 5.0 | 9.0 | 0.00 | 0.00 | 0.00 | 67 | 1010.9 |
| 20260831074318 | 81 | 341 | 7.0 | 14.0 | 0.00 | 0.00 | 0.00 | 67 | 1010.9 |
| 20260831073418 | 80 | 337 | 5.0 | 14.0 | 0.00 | 0.00 | 0.00 | 69 | 1010.8 |
| 20260831072518 | 80 | 357 | 6.0 | 15.0 | 0.00 | 0.00 | 0.00 | 69 | 1011.1 |
| 20260831070718 | 82 | 30 | 9.0 | 18.0 | 0.00 | 0.00 | 0.00 | 68 | 1010.5 |
| 20260831065818 | 82 | 354 | 10.0 | 22.0 | 0.00 | 0.00 | 0.00 | 67 | 1010.5 |
| 20260831064918 | 82 | 345 | 10.0 | 20.0 | 0.00 | 0.00 | 0.00 | 67 | 1009.9 |
| 20260831064018 | 82 | 339 | 9.0 | 25.0 | 0.00 | 0.00 | 0.00 | 68 | 1009.8 |
| 20260831063118 | 82 | 349 | 11.0 | 21.0 | 0.00 | 0.00 | 0.00 | 68 | 1009.7 |
| 20260831062218 | 82 | 346 | 10.0 | 21.0 | 0.00 | 0.00 | 0.00 | 65 | 1009.6 |
| 20260831061318 | 83 | 347 | 8.0 | 22.0 | 0.00 | 0.00 | 0.00 | 61 | 1009.8 |
| 20260831060418 | 83 | 358 | 6.0 | 20.0 | 0.00 | 0.00 | 0.00 | 62 | 1009.9 |
| 20260831054618 | 85 | 271 | 3.0 | 10.0 | 0.00 | 0.00 | 0.00 | 60 | 1009.1 |
| 20260831052818 | 83 | 253 | 7.0 | 14.0 | 0.00 | 0.00 | 0.00 | 64 | 1008.9 |
| 20260831051018 | 82 | 229 | 7.0 | 21.0 | 0.00 | 0.00 | 0.00 | 65 | 1009.6 |
| 20260831045218 | 85 | 213 | 8.0 | 20.0 | 0.00 | 0.00 | 0.00 | 56 | 1010.0 |
| 20260831044318 | 86 | 198 | 11.0 | 21.0 | 0.00 | 0.00 | 0.00 | 55 | 1009.7 |
| 20260831043418 | 87 | 201 | 10.0 | 26.0 | 0.00 | 0.00 | 0.00 | 52 | 1009.3 |
| 20260831041618 | 89 | 202 | 9.0 | 21.0 | 0.00 | 0.00 | 0.00 | 46 | 1009.0 |
| 20260831040718 | 91 | 201 | 7.0 | 22.0 | 0.00 | 0.00 | 0.00 | 46 | 1008.9 |
| 20260831035818 | 92 | 201 | 8.0 | 22.0 | 0.00 | 0.00 | 0.00 | 45 | 1008.6 |
| 20260831034918 | 94 | 206 | 7.0 | 20.0 | 0.00 | 0.00 | 0.00 | 41 | 1008.6 |
| 20260831033118 | 100 | 306 | 1.0 | 5.0 | 0.00 | 0.00 | 0.00 | 32 | 1007.6 |
| 20260831032218 | 100 | 344 | 1.0 | 4.0 | 0.00 | 0.00 | 0.00 | 32 | 1007.5 |
| 20260831031318 | 100 | 341 | 1.0 | 3.0 | 0.00 | 0.00 | 0.00 | 32 | 1007.4 |
| 20260831030418 | 101 | 327 | 2.0 | 5.0 | 0.00 | 0.00 | 0.00 | 32 | 1007.3 |
| 20260831025518 | 101 | 302 | 3.0 | 6.0 | 0.00 | 0.00 | 0.00 | 32 | 1007.1 |
| 20260831024618 | 101 | 292 | 3.0 | 9.0 | 0.00 | 0.00 | 0.00 | 32 | 1007.2 |
| 20260831023718 | 101 | 301 | 2.0 | 8.0 | 0.00 | 0.00 | 0.00 | 32 | 1006.9 |
| 20260831022818 | 101 | 271 | 3.0 | 6.0 | 0.00 | 0.00 | 0.00 | 32 | 1006.8 |
| 20260831021018 | 101 | 304 | 2.0 | 5.0 | 0.00 | 0.00 | 0.00 | 31 | 1006.3 |
| 20260831020118 | 102 | 254 | 3.0 | 5.0 | 0.00 | 0.00 | 0.00 | 31 | 1006.3 |
| 20260831015218 | 102 | 267 | 4.0 | 8.0 | 0.00 | 0.00 | 0.00 | 31 | 1006.2 |
| 20260831014318 | 102 | 260 | 3.0 | 8.0 | 0.00 | 0.00 | 0.00 | 30 | 1006.0 |
| 20260831013418 | 102 | 297 | 3.0 | 7.0 | 0.00 | 0.00 | 0.00 | 30 | 1005.8 |
| 20260831012518 | 103 | 308 | 2.0 | 10.0 | 0.00 | 0.00 | 0.00 | 30 | 1005.8 |
| 20260831011618 | 103 | 285 | 1.0 | 3.0 | 0.00 | 0.00 | 0.00 | 30 | 1005.8 |
| 20260831010718 | 103 | 281 | 1.0 | 4.0 | 0.00 | 0.00 | 0.00 | 30 | 1005.9 |
| 20260831004018 | 104 | 255 | 4.0 | 8.0 | 0.00 | 0.00 | 0.00 | 29 | 1006.2 |
| 20260831003118 | 104 | 262 | 4.0 | 13.0 | 0.00 | 0.00 | 0.00 | 29 | 1006.2 |
| 20260831002218 | 105 | 280 | 2.0 | 7.0 | 0.00 | 0.00 | 0.00 | 28 | 1006.1 |
| 20260831001318 | 104 | 44 | 2.0 | 5.0 | 0.00 | 0.00 | 0.00 | 28 | 1006.1 |
| 20260831000417 | 104 | 81 | 2.0 | 4.0 | 0.00 | 0.00 | 0.00 | 28 | 1006.3 |
| 20260830235517 | 104 | 358 | 2.0 | 7.0 | 0.00 | 0.00 | 0.00 | 28 | 1006.4 |
| 20260830234617 | 106 | 254 | 3.0 | 8.0 | 0.00 | 0.00 | 0.00 | 28 | 1006.4 |
| 20260830233718 | 106 | 263 | 5.0 | 9.0 | 0.00 | 0.00 | 0.00 | 28 | 1006.5 |
| 20260830232817 | 106 | 300 | 5.0 | 11.0 | 0.00 | 0.00 | 0.00 | 27 | 1006.6 |
| 20260830231918 | 106 | 293 | 6.0 | 11.0 | 0.00 | 0.00 | 0.00 | 27 | 1006.7 |
| 20260830231018 | 106 | 311 | 4.0 | 11.0 | 0.00 | 0.00 | 0.00 | 27 | 1006.8 |
| 20260830225218 | 107 | 303 | 3.0 | 9.0 | 0.00 | 0.00 | 0.00 | 27 | 1007.1 |
| 20260830223417 | 106 | 237 | 3.0 | 8.0 | 0.00 | 0.00 | 0.00 | 28 | 1007.5 |
| 20260830222517 | 107 | 259 | 4.0 | 10.0 | 0.00 | 0.00 | 0.00 | 27 | 1007.6 |
| 20260830221617 | 107 | 280 | 3.0 | 12.0 | 0.00 | 0.00 | 0.00 | 27 | 1007.7 |
| 20260830220717 | 106 | 340 | 3.0 | 8.0 | 0.00 | 0.00 | 0.00 | 27 | 1007.9 |
| 20260830215817 | 107 | 330 | 3.0 | 8.0 | 0.00 | 0.00 | 0.00 | 27 | 1008.2 |
| 20260830214917 | 106 | 239 | 3.0 | 9.0 | 0.00 | 0.00 | 0.00 | 27 | 1008.4 |
| 20260830213117 | 106 | 359 | 3.0 | 8.0 | 0.00 | 0.00 | 0.00 | 27 | 1008.9 |
| 20260830212218 | 105 | 91 | 4.0 | 10.0 | 0.00 | 0.00 | 0.00 | 28 | 1008.9 |
| 20260830211317 | 105 | 138 | 3.0 | 10.0 | 0.00 | 0.00 | 0.00 | 28 | 1009.1 |
| 20260830210417 | 105 | 176 | 3.0 | 7.0 | 0.00 | 0.00 | 0.00 | 28 | 1009.3 |
| 20260830205517 | 105 | 196 | 3.0 | 8.0 | 0.00 | 0.00 | 0.00 | 28 | 1009.4 |
| 20260830204617 | 106 | 253 | 3.0 | 8.0 | 0.00 | 0.00 | 0.00 | 28 | 1009.7 |
| 20260830203717 | 106 | 226 | 3.0 | 8.0 | 0.00 | 0.00 | 0.00 | 29 | 1009.9 |
| 20260830202817 | 104 | 161 | 3.0 | 11.0 | 0.00 | 0.00 | 0.00 | 30 | 1010.0 |
| 20260830201917 | 105 | 49 | 3.0 | 8.0 | 0.00 | 0.00 | 0.00 | 30 | 1010.2 |
| 20260830200117 | 104 | 272 | 3.0 | 9.0 | 0.00 | 0.00 | 0.00 | 30 | 1010.5 |
| 20260830195217 | 103 | 163 | 3.0 | 10.0 | 0.00 | 0.00 | 0.00 | 31 | 1010.7 |
| 20260830194317 | 103 | 164 | 3.0 | 11.0 | 0.00 | 0.00 | 0.00 | 31 | 1010.7 |
| 20260830193417 | 103 | 142 | 3.0 | 9.0 | 0.00 | 0.00 | 0.00 | 30 | 1010.8 |
| 20260830192517 | 103 | 166 | 4.0 | 10.0 | 0.00 | 0.00 | 0.00 | 31 | 1010.9 |
| 20260830185817 | 101 | 126 | 3.0 | 11.0 | 0.00 | 0.00 | 0.00 | 32 | 1011.4 |
| 20260830184917 | 101 | 208 | 3.0 | 9.0 | 0.00 | 0.00 | 0.00 | 32 | 1011.7 |
| 20260830184017 | 101 | 172 | 3.0 | 10.0 | 0.00 | 0.00 | 0.00 | 33 | 1011.7 |
| 20260830183117 | 101 | 138 | 4.0 | 10.0 | 0.00 | 0.00 | 0.00 | 33 | 1011.9 |
| 20260830181317 | 101 | 168 | 4.0 | 15.0 | 0.00 | 0.00 | 0.00 | 33 | 1012.3 |
| 20260830180417 | 100 | 178 | 6.0 | 12.0 | 0.00 | 0.00 | 0.00 | 34 | 1012.3 |
| 20260830174617 | 100 | 179 | 4.0 | 14.0 | 0.00 | 0.00 | 0.00 | 34 | 1012.6 |
| 20260830171917 | 99 | 172 | 4.0 | 12.0 | 0.00 | 0.00 | 0.00 | 35 | 1012.7 |
| 20260830171017 | 97 | 175 | 5.0 | 10.0 | 0.00 | 0.00 | 0.00 | 36 | 1012.6 |
| 20260830170117 | 97 | 191 | 6.0 | 14.0 | 0.00 | 0.00 | 0.00 | 37 | 1012.7 |
| 20260830165217 | 96 | 178 | 5.0 | 12.0 | 0.00 | 0.00 | 0.00 | 38 | 1012.6 |
| 20260830164317 | 96 | 155 | 5.0 | 11.0 | 0.00 | 0.00 | 0.00 | 38 | 1012.6 |
| 20260830162517 | 96 | 146 | 3.0 | 12.0 | 0.00 | 0.00 | 0.00 | 39 | 1012.5 |
| 20260830161617 | 95 | 140 | 3.0 | 9.0 | 0.00 | 0.00 | 0.00 | 39 | 1012.6 |
| 20260830160717 | 94 | 118 | 4.0 | 10.0 | 0.00 | 0.00 | 0.00 | 41 | 1012.6 |
| 20260830154917 | 93 | 131 | 4.0 | 10.0 | 0.00 | 0.00 | 0.00 | 41 | 1012.5 |
| 20260830154017 | 93 | 145 | 3.0 | 12.0 | 0.00 | 0.00 | 0.00 | 40 | 1012.5 |
| 20260830153117 | 92 | 150 | 3.0 | 9.0 | 0.00 | 0.00 | 0.00 | 42 | 1012.6 |
| 20260830152217 | 92 | 147 | 3.0 | 9.0 | 0.00 | 0.00 | 0.00 | 42 | 1012.6 |
| 20260830151317 | 91 | 136 | 3.0 | 9.0 | 0.00 | 0.00 | 0.00 | 43 | 1012.6 |
| 20260830150417 | 91 | 135 | 3.0 | 10.0 | 0.00 | 0.00 | 0.00 | 44 | 1012.6 |
| 20260830145517 | 90 | 113 | 4.0 | 8.0 | 0.00 | 0.00 | 0.00 | 45 | 1012.8 |
| 20260830144617 | 89 | 104 | 4.0 | 10.0 | 0.00 | 0.00 | 0.00 | 46 | 1012.8 |
| 20260830143717 | 89 | 103 | 4.0 | 10.0 | 0.00 | 0.00 | 0.00 | 47 | 1012.7 |
| 20260830142817 | 88 | 113 | 4.0 | 11.0 | 0.00 | 0.00 | 0.00 | 48 | 1012.7 |
| 20260830141917 | 87 | 104 | 4.0 | 9.0 | 0.00 | 0.00 | 0.00 | 48 | 1012.5 |
| 20260830141017 | 86 | 103 | 4.0 | 12.0 | 0.00 | 0.00 | 0.00 | 50 | 1012.4 |
| 20260830140117 | 86 | 96 | 5.0 | 12.0 | 0.00 | 0.00 | 0.00 | 51 | 1012.3 |
| 20260830135217 | 86 | 99 | 5.0 | 12.0 | 0.00 | 0.00 | 0.00 | 50 | 1012.3 |
| 20260830134317 | 86 | 98 | 4.0 | 11.0 | 0.00 | 0.00 | 0.00 | 49 | 1012.3 |
| 20260830132517 | 86 | 107 | 1.0 | 7.0 | 0.00 | 0.00 | 0.00 | 48 | 1012.2 |
| 20260830131617 | 86 | 113 | 1.0 | 7.0 | 0.00 | 0.00 | 0.00 | 48 | 1012.0 |
| 20260830130717 | 87 | 108 | 2.0 | 7.0 | 0.00 | 0.00 | 0.00 | 47 | 1011.8 |
| 20260830125817 | 87 | 125 | 3.0 | 10.0 | 0.00 | 0.00 | 0.00 | 47 | 1011.5 |
| 20260830124917 | 87 | 102 | 4.0 | 11.0 | 0.00 | 0.00 | 0.00 | 47 | 1011.3 |
| 20260830124017 | 87 | 99 | 4.0 | 10.0 | 0.00 | 0.00 | 0.00 | 47 | 1011.1 |
| 20260830123117 | 87 | 103 | 2.0 | 10.0 | 0.00 | 0.00 | 0.00 | 46 | 1011.0 |
| 20260830121316 | 87 | 94 | 1.0 | 8.0 | 0.00 | 0.00 | 0.00 | 46 | 1010.8 |
| 20260830120417 | 87 | 115 | 0.0 | 4.0 | 0.00 | 0.00 | 0.00 | 47 | 1010.7 |
| 20260830114616 | 86 | 175 | 0.0 | 1.0 | 0.00 | 0.00 | 0.00 | 50 | 1010.5 |
| 20260830113717 | 86 | 178 | 0.0 | 3.0 | 0.00 | 0.00 | 0.00 | 50 | 1010.6 |
| 20260830112816 | 86 | 189 | 1.0 | 4.0 | 0.00 | 0.00 | 0.00 | 51 | 1010.7 |
| 20260830111917 | 86 | 163 | 1.0 | 5.0 | 0.00 | 0.00 | 0.00 | 51 | 1010.6 |
| 20260830111016 | 86 | 164 | 1.0 | 6.0 | 0.00 | 0.00 | 0.00 | 51 | 1010.5 |
| 20260830110117 | 87 | 160 | 1.0 | 6.0 | 0.00 | 0.00 | 0.00 | 50 | 1010.5 |
| 20260830105217 | 87 | 73 | 1.0 | 6.0 | 0.00 | 0.00 | 0.00 | 50 | 1010.5 |
| 20260830104316 | 87 | 72 | 1.0 | 3.0 | 0.00 | 0.00 | 0.00 | 50 | 1010.6 |
| 20260830102516 | 88 | 94 | 1.0 | 5.0 | 0.00 | 0.00 | 0.00 | 49 | 1010.7 |
| 20260830101617 | 88 | 78 | 2.0 | 5.0 | 0.00 | 0.00 | 0.00 | 49 | 1010.5 |
| 20260830100716 | 88 | 89 | 3.0 | 10.0 | 0.00 | 0.00 | 0.00 | 48 | 1010.3 |
| 20260830094917 | 89 | 62 | 4.0 | 13.0 | 0.00 | 0.00 | 0.00 | 47 | 1010.0 |
| 20260830094016 | 89 | 56 | 3.0 | 12.0 | 0.00 | 0.00 | 0.00 | 46 | 1009.9 |
| 20260830093116 | 89 | 54 | 2.0 | 10.0 | 0.00 | 0.00 | 0.00 | 46 | 1009.8 |
| 20260830092216 | 89 | 42 | 3.0 | 8.0 | 0.00 | 0.00 | 0.00 | 45 | 1009.7 |
| 20260830091316 | 90 | 56 | 2.0 | 9.0 | 0.00 | 0.00 | 0.00 | 45 | 1009.7 |
| 20260830090416 | 90 | 67 | 3.0 | 9.0 | 0.00 | 0.00 | 0.00 | 44 | 1009.7 |
| 20260830085516 | 89 | 62 | 2.0 | 8.0 | 0.00 | 0.00 | 0.00 | 44 | 1009.7 |
| 20260830084616 | 89 | 47 | 2.0 | 9.0 | 0.00 | 0.00 | 0.00 | 44 | 1009.8 |
| 20260830083716 | 89 | 44 | 3.0 | 8.0 | 0.00 | 0.00 | 0.00 | 45 | 1009.8 |
| 20260830082816 | 89 | 32 | 2.0 | 9.0 | 0.00 | 0.00 | 0.00 | 45 | 1009.8 |
| 20260830081916 | 89 | 356 | 2.0 | 6.0 | 0.00 | 0.00 | 0.00 | 44 | 1009.9 |
| 20260830081016 | 90 | 6 | 1.0 | 9.0 | 0.00 | 0.00 | 0.00 | 43 | 1009.7 |